Terug naar catalogus

FENGYUN 1C DEB

ActiefSSO
NORAD 29997·DEBRIS·🇨🇳 China

Gelanceerd May 10, 1999 vanaf Taiyuan Satellite Launch Center

Loading…

Volgende Passages (komende 24 uur)

TLE

VersSource: Space-Track

Epoch: Sep 13, 2026, 23:05 UTC

1 29997U 99025LX  26256.96186325  .00000792  00000-0  54039-3 0  9994
2 29997  98.8809 265.0519 0078053 282.8690  94.8627 14.01330773  2407

Volg FENGYUN 1C DEB in realtime met AllMySat

Download on the App Store